Simultaneous Nadir Overpasses (SNOs) Predictions

Prediction of SNOs between METOP-A and TERRA Satellite Orbit:

Table of predicted SNOs for the next 14.0 days since TLE Epoch: 7/26/2018
Index Date (METOP-A) Time (METOP-A) Lat,Lon (METOP-A) SZA (METOP-A ) Date (TERRA) Time (TERRA) Lat,Lon (TERRA) SZA (TERRA ) Distance(km) Time Diff (sec)
1 07/27/2018 04:50:15 -81.42, -23.18 114.88 07/27/2018 04:50:57 -81.42, -23.22 114.87 0.78 42
2 07/27/2018 05:40:55 81.42, 144.45 65.16 07/27/2018 05:40:23 81.42, 144.55 65.16 1.59 32
3 07/30/2018 00:24:31 -81.42, 43.14 114.24 07/30/2018 00:25:11 -81.41, 43.14 114.23 0.69 40
4 07/30/2018 01:15:11 81.42,-149.28 65.80 07/30/2018 01:14:37 81.42,-149.11 65.80 2.79 34
5 08/01/2018 19:58:47 -81.42, 109.84 113.52 08/01/2018 19:59:25 -81.43, 109.86 113.49 0.83 38
6 08/01/2018 20:49:27 81.42, -82.63 66.52 08/01/2018 20:48:52 81.41, -82.80 66.48 2.97 35
7 08/04/2018 15:33:04 -81.42, 176.12 112.80 08/04/2018 15:33:40 -81.42, 176.16 112.78 0.58 36
8 08/04/2018 16:23:43 81.42, -15.99 67.28 08/04/2018 16:23:06 81.42, -16.13 67.25 2.33 37
9 08/07/2018 11:07:20 -81.42,-117.61 112.04 08/07/2018 11:07:54 -81.41,-117.58 112.02 1.02 34




NCC Satellite Simultaneous Nadir Overpasses (SNOs) Prediction Service
